Radiation Dose at Monitoring Post of Fukushima Daini Nuclear Power Station
Date,Time,MP-1(microSv/h),MP-2(microSv/h),MP-3(microSv/h),MP-4(microSv/h),MP-5(microSv/h),MP-6(microSv/h),MP-7(microSv/h),Wind Direction,Wind Velocity(m/s),Rain
2016/07/01,00:00,0.398,0.238,0.413,0.375,0.368,0.193,0.164,-,CALM,No
2016/07/01,00:10,0.394,0.238,0.411,0.379,0.364,0.194,0.163,-,CALM,No
2016/07/01,00:20,0.398,0.238,0.415,0.379,0.366,0.194,0.163,north-northwest,0.6,No
2016/07/01,00:30,0.397,0.237,0.410,0.375,0.366,0.193,0.165,north-northwest,0.9,No
2016/07/01,00:40,0.396,0.239,0.414,0.381,0.363,0.194,0.165,west-northwest,0.6,No
2016/07/01,00:50,0.398,0.238,0.413,0.378,0.368,0.194,0.166,northwest,1.4,No
2016/07/01,01:00,0.395,0.237,0.410,0.378,0.365,0.194,0.164,north,1.5,No
2016/07/01,01:10,0.398,0.240,0.413,0.380,0.365,0.193,0.164,north,1.6,No
2016/07/01,01:20,0.398,0.239,0.410,0.376,0.367,0.192,0.166,north,1.3,No
2016/07/01,01:30,0.395,0.240,0.414,0.382,0.365,0.194,0.164,north-northwest,1.1,No
2016/07/01,01:40,0.399,0.239,0.413,0.379,0.368,0.194,0.166,west-northwest,1.5,No
2016/07/01,01:50,0.395,0.239,0.411,0.377,0.365,0.192,0.165,west-southwest,0.9,No
2016/07/01,02:00,0.398,0.240,0.415,0.381,0.365,0.194,0.165,north-northwest,2.1,No
2016/07/01,02:10,0.399,0.238,0.412,0.377,0.368,0.193,0.166,northwest,1.4,No
2016/07/01,02:20,0.396,0.240,0.414,0.381,0.364,0.195,0.164,west-northwest,1.0,No
2016/07/01,02:30,0.400,0.239,0.415,0.379,0.370,0.193,0.167,north,0.6,No
2016/07/01,02:40,0.397,0.239,0.412,0.377,0.365,0.194,0.165,north,1.1,No
2016/07/01,02:50,0.399,0.239,0.414,0.381,0.366,0.194,0.166,north,0.7,No
2016/07/01,03:00,0.397,0.238,0.411,0.377,0.368,0.193,0.166,north-northwest,0.6,No
2016/07/01,03:10,0.397,0.240,0.413,0.382,0.365,0.195,0.166,-,CALM,No
2016/07/01,03:20,0.399,0.238,0.413,0.378,0.368,0.193,0.166,southeast,0.5,No
2016/07/01,03:30,0.397,0.240,0.412,0.379,0.365,0.194,0.165,southwest,1.2,No
2016/07/01,03:40,0.400,0.239,0.415,0.380,0.369,0.195,0.166,southwest,0.7,No
2016/07/01,03:50,0.398,0.238,0.411,0.377,0.365,0.194,0.166,north-northeast,0.7,No
2016/07/01,04:00,0.397,0.240,0.415,0.381,0.368,0.195,0.165,north-northwest,1.3,No
2016/07/01,04:10,0.400,0.238,0.413,0.380,0.367,0.194,0.167,north,1.1,No
2016/07/01,04:20,0.397,0.240,0.412,0.379,0.364,0.194,0.165,north,1.4,No
2016/07/01,04:30,0.402,0.240,0.415,0.379,0.368,0.193,0.167,north,1.9,No
2016/07/01,04:40,0.399,0.239,0.415,0.379,0.366,0.195,0.166,north,2.0,No
2016/07/01,04:50,0.402,0.241,0.414,0.383,0.370,0.196,0.167,north,1.4,No
2016/07/01,05:00,0.400,0.241,0.414,0.378,0.368,0.195,0.168,north,1.4,No
2016/07/01,05:10,0.399,0.241,0.414,0.382,0.367,0.196,0.166,north,1.2,No
2016/07/01,05:20,0.403,0.240,0.416,0.380,0.369,0.194,0.168,north,1.6,No
2016/07/01,05:30,0.399,0.241,0.413,0.379,0.366,0.196,0.166,north,1.5,No
2016/07/01,05:40,0.403,0.241,0.418,0.382,0.371,0.195,0.167,-,CALM,No
2016/07/01,05:50,0.399,0.240,0.414,0.379,0.367,0.196,0.166,-,CALM,No
2016/07/01,06:00,0.400,0.241,0.414,0.382,0.367,0.196,0.167,north-northwest,0.6,No
2016/07/01,06:10,0.402,0.240,0.416,0.380,0.368,0.194,0.167,east-northeast,0.9,No
2016/07/01,06:20,0.399,0.241,0.412,0.379,0.365,0.195,0.166,-,CALM,No
2016/07/01,06:30,0.402,0.240,0.414,0.381,0.370,0.194,0.167,-,CALM,No
2016/07/01,06:40,0.399,0.240,0.415,0.378,0.365,0.194,0.167,northeast,0.9,No
2016/07/01,06:50,0.400,0.242,0.412,0.381,0.366,0.195,0.166,north-northeast,0.6,No
2016/07/01,07:00,0.403,0.242,0.417,0.381,0.369,0.195,0.167,east,0.7,No
2016/07/01,07:10,0.399,0.240,0.414,0.378,0.368,0.195,0.168,-,CALM,No
2016/07/01,07:20,0.402,0.242,0.413,0.382,0.364,0.196,0.167,-,CALM,No
2016/07/01,07:30,0.402,0.241,0.417,0.381,0.369,0.196,0.168,east-northeast,0.9,No
2016/07/01,07:40,0.397,0.239,0.415,0.376,0.368,0.196,0.168,east-northeast,0.9,No
2016/07/01,07:50,0.401,0.241,0.412,0.380,0.365,0.195,0.166,-,CALM,No
2016/07/01,08:00,0.399,0.239,0.417,0.381,0.368,0.194,0.167,north-northwest,0.8,No
2016/07/01,08:10,0.397,0.239,0.415,0.376,0.371,0.194,0.167,southeast,1.1,No
2016/07/01,08:20,0.401,0.240,0.411,0.380,0.368,0.194,0.166,southeast,1.7,No
2016/07/01,08:30,0.401,0.242,0.416,0.381,0.362,0.195,0.166,southeast,1.5,No
2016/07/01,08:40,0.395,0.239,0.415,0.378,0.365,0.194,0.166,south-southeast,1.5,No
2016/07/01,08:50,0.401,0.238,0.410,0.377,0.369,0.196,0.164,south,1.4,No
2016/07/01,09:00,0.400,0.240,0.413,0.382,0.368,0.195,0.166,south,1.9,No
2016/07/01,09:10,0.398,0.241,0.418,0.380,0.366,0.193,0.167,south-southeast,1.9,No
2016/07/01,09:20,0.395,0.240,0.415,0.377,0.365,0.195,0.166,south-southeast,1.7,No
2016/07/01,09:30,0.402,0.239,0.412,0.379,0.369,0.195,0.166,south,2.1,No
2016/07/01,09:40,0.401,0.239,0.413,0.383,0.371,0.196,0.165,south,2.2,No
2016/07/01,09:50,0.398,0.239,0.418,0.382,0.368,0.195,0.165,south-southeast,2.2,No
2016/07/01,10:00,0.396,0.238,0.416,0.380,0.368,0.195,0.166,south-southwest,2.2,No
2016/07/01,10:10,0.396,0.239,0.413,0.381,0.367,0.196,0.168,south,2.2,No
2016/07/01,10:20,0.396,0.239,0.412,0.378,0.365,0.197,0.166,south-southeast,2.8,No
2016/07/01,10:30,0.397,0.240,0.411,0.378,0.365,0.196,0.167,south-southeast,2.8,No
2016/07/01,10:40,0.399,0.240,0.413,0.378,0.365,0.195,0.165,southeast,2.7,No
2016/07/01,10:50,0.403,0.239,0.411,0.378,0.366,0.194,0.166,south-southeast,2.4,No
2016/07/01,11:00,0.401,0.239,0.412,0.377,0.366,0.194,0.166,south-southeast,2.6,No
2016/07/01,11:10,0.399,0.238,0.413,0.378,0.373,0.195,0.165,southeast,2.6,No
2016/07/01,11:20,0.396,0.240,0.419,0.383,0.371,0.197,0.165,south-southeast,2.5,No
2016/07/01,11:30,0.397,0.238,0.418,0.384,0.369,0.196,0.165,south-southeast,3.1,No
2016/07/01,11:40,0.397,0.239,0.415,0.380,0.367,0.195,0.164,south-southeast,1.9,No
2016/07/01,11:50,0.401,0.239,0.414,0.380,0.365,0.195,0.167,southeast,2.0,No
2016/07/01,12:00,0.404,0.240,0.412,0.377,0.365,0.195,0.167,south-southeast,2.6,No
2016/07/01,12:10,0.401,0.238,0.411,0.377,0.366,0.195,0.165,south-southeast,2.7,No
2016/07/01,12:20,0.398,0.239,0.414,0.379,0.364,0.196,0.165,south-southeast,2.6,No
2016/07/01,12:30,0.397,0.239,0.419,0.384,0.364,0.195,0.166,south-southeast,3.2,No
2016/07/01,12:40,0.396,0.239,0.417,0.382,0.367,0.195,0.165,south-southeast,3.4,No
2016/07/01,12:50,0.398,0.239,0.414,0.379,0.372,0.195,0.166,south-southeast,3.6,No
2016/07/01,13:00,0.403,0.240,0.413,0.379,0.371,0.195,0.167,south-southeast,2.8,No
2016/07/01,13:10,0.402,0.242,0.411,0.378,0.371,0.195,0.165,south-southeast,3.1,No
2016/07/01,13:20,0.398,0.241,0.417,0.383,0.366,0.196,0.166,south-southeast,2.8,No
2016/07/01,13:30,0.397,0.240,0.418,0.385,0.367,0.194,0.165,south-southeast,2.8,No
2016/07/01,13:40,0.396,0.240,0.415,0.381,0.365,0.194,0.164,south-southeast,2.9,No
2016/07/01,13:50,0.402,0.240,0.412,0.379,0.365,0.195,0.166,southeast,2.8,No
2016/07/01,14:00,0.403,0.238,0.413,0.378,0.367,0.195,0.168,south-southeast,3.3,No
2016/07/01,14:10,0.400,0.239,0.413,0.383,0.372,0.196,0.166,south-southeast,2.4,No
2016/07/01,14:20,0.398,0.238,0.412,0.384,0.370,0.194,0.165,southeast,2.8,No
2016/07/01,14:30,0.395,0.239,0.412,0.380,0.369,0.195,0.164,south-southeast,2.6,No
2016/07/01,14:40,0.394,0.239,0.414,0.380,0.368,0.195,0.165,southeast,2.1,No
2016/07/01,14:50,0.400,0.241,0.413,0.379,0.366,0.195,0.167,south-southeast,3.3,No
2016/07/01,15:00,0.403,0.238,0.414,0.380,0.366,0.195,0.167,south-southeast,2.5,No
2016/07/01,15:10,0.401,0.239,0.411,0.385,0.365,0.197,0.166,south-southeast,3.0,No
2016/07/01,15:20,0.398,0.238,0.412,0.383,0.366,0.196,0.165,south-southeast,2.8,No
2016/07/01,15:30,0.396,0.239,0.414,0.381,0.367,0.194,0.166,south-southeast,3.6,No
2016/07/01,15:40,0.404,0.243,0.414,0.381,0.367,0.194,0.168,south-southeast,3.3,No
2016/07/01,15:50,0.403,0.241,0.419,0.383,0.366,0.195,0.166,south,3.6,No
2016/07/01,16:00,0.400,0.242,0.420,0.382,0.366,0.195,0.165,south,2.8,No
2016/07/01,16:10,0.398,0.240,0.417,0.381,0.367,0.196,0.166,south-southeast,2.8,No
2016/07/01,16:20,0.403,0.242,0.415,0.381,0.372,0.197,0.167,south,2.7,No
2016/07/01,16:30,0.404,0.242,0.419,0.385,0.373,0.194,0.166,south,3.8,No
2016/07/01,16:40,0.401,0.239,0.419,0.381,0.370,0.196,0.166,south-southeast,3.5,No
2016/07/01,16:50,0.397,0.242,0.415,0.380,0.367,0.196,0.166,south,3.7,No
2016/07/01,17:00,0.402,0.242,0.415,0.384,0.366,0.196,0.166,south-southeast,3.6,No
2016/07/01,17:10,0.404,0.240,0.420,0.384,0.366,0.195,0.165,south,4.3,No
2016/07/01,17:20,0.400,0.241,0.418,0.380,0.366,0.194,0.167,south,3.6,No
2016/07/01,17:30,0.399,0.241,0.413,0.384,0.371,0.196,0.166,south,4.5,No
2016/07/01,17:40,0.403,0.241,0.419,0.383,0.372,0.196,0.166,south-southwest,4.8,No
2016/07/01,17:50,0.403,0.240,0.418,0.379,0.369,0.194,0.167,south,6.1,No
2016/07/01,18:00,0.400,0.242,0.415,0.384,0.366,0.196,0.167,south,5.8,No
2016/07/01,18:10,0.404,0.241,0.418,0.384,0.370,0.195,0.165,south-southwest,5.8,No
2016/07/01,18:20,0.403,0.241,0.418,0.380,0.373,0.195,0.168,south-southwest,5.6,No
2016/07/01,18:30,0.399,0.243,0.415,0.384,0.369,0.196,0.167,south-southwest,5.6,No
2016/07/01,18:40,0.403,0.240,0.418,0.383,0.371,0.194,0.166,south-southwest,5.9,No
2016/07/01,18:50,0.403,0.240,0.419,0.380,0.370,0.195,0.168,south-southwest,6.5,No
2016/07/01,19:00,0.401,0.242,0.415,0.385,0.368,0.195,0.166,south-southwest,5.9,No
2016/07/01,19:10,0.403,0.241,0.420,0.381,0.372,0.195,0.166,south-southwest,6.3,No
2016/07/01,19:20,0.401,0.243,0.418,0.381,0.369,0.197,0.167,south,5.4,No
2016/07/01,19:30,0.401,0.241,0.415,0.385,0.369,0.195,0.165,south,5.9,No
2016/07/01,19:40,0.402,0.240,0.420,0.381,0.370,0.195,0.168,south,5.8,No
2016/07/01,19:50,0.401,0.242,0.418,0.383,0.368,0.196,0.167,south,5.9,No
2016/07/01,20:00,0.402,0.240,0.418,0.384,0.372,0.195,0.166,south,6.1,No
2016/07/01,20:10,0.401,0.242,0.420,0.380,0.369,0.196,0.167,south,5.0,No
2016/07/01,20:20,0.400,0.241,0.417,0.384,0.368,0.196,0.166,south,4.8,No
2016/07/01,20:30,0.404,0.240,0.420,0.382,0.371,0.195,0.166,south-southwest,6.1,No
2016/07/01,20:40,0.401,0.242,0.419,0.381,0.367,0.196,0.166,south-southwest,5.6,No
2016/07/01,20:50,0.401,0.240,0.415,0.385,0.369,0.195,0.166,south-southwest,6.3,No
2016/07/01,21:00,0.402,0.242,0.419,0.380,0.370,0.196,0.167,south-southwest,6.4,No
2016/07/01,21:10,0.400,0.241,0.416,0.383,0.368,0.196,0.166,south,5.6,No
2016/07/01,21:20,0.402,0.242,0.416,0.385,0.372,0.195,0.168,south-southwest,6.8,No
2016/07/01,21:30,0.402,0.241,0.420,0.381,0.367,0.197,0.167,south,7.3,No
2016/07/01,21:40,0.402,0.241,0.415,0.385,0.369,0.195,0.167,south,7.6,No
2016/07/01,21:50,0.404,0.242,0.418,0.382,0.371,0.196,0.168,south,8.0,No
2016/07/01,22:00,0.401,0.242,0.419,0.382,0.366,0.196,0.167,south-southwest,9.2,No
2016/07/01,22:10,0.402,0.239,0.416,0.385,0.370,0.195,0.167,south-southwest,9.4,No
2016/07/01,22:20,0.403,0.242,0.419,0.380,0.369,0.196,0.168,south-southwest,11.3,No
2016/07/01,22:30,0.400,0.241,0.417,0.384,0.367,0.196,0.167,south-southwest,10.5,No
2016/07/01,22:40,0.404,0.240,0.416,0.384,0.371,0.196,0.167,south-southwest,9.5,No
2016/07/01,22:50,0.402,0.242,0.421,0.381,0.367,0.195,0.168,south-southwest,8.3,No
2016/07/01,23:00,0.400,0.241,0.416,0.385,0.368,0.195,0.167,south-southwest,7.8,Yes
2016/07/01,23:10,0.403,0.240,0.417,0.383,0.371,0.195,0.168,south-southwest,7.1,Yes
2016/07/01,23:20,0.402,0.243,0.421,0.382,0.368,0.197,0.167,south-southwest,8.3,No
2016/07/01,23:30,0.401,0.241,0.417,0.384,0.368,0.197,0.166,south-southwest,7.2,No
2016/07/01,23:40,0.404,0.242,0.418,0.383,0.371,0.196,0.168,south-southwest,5.8,No
2016/07/01,23:50,0.401,0.241,0.420,0.382,0.369,0.196,0.167,south-southwest,6.2,No
